TimeCDT,TemperatureF,Dew PointF,Humidity,Sea Level PressureIn,VisibilityMPH,Wind Direction,Wind SpeedMPH,Gust SpeedMPH,PrecipitationIn,Events,Conditions,WindDirDegrees,DateUTC
12:58 AM,81.9,66.9,60,29.81,10.0,SE,13.8,-,N/A,,Clear,140,2013-06-17 05:58:00
1:58 AM,81.5,67.6,63,29.81,10.0,SSE,11.5,-,N/A,,Clear,150,2013-06-17 06:58:00
2:53 AM,78.8,64.4,61,29.91,10.0,NNE,11.5,31.1,N/A,,Mostly Cloudy,20,2013-06-17 07:53:00
2:58 AM,80.2,65.1,60,29.86,10.0,NE,12.7,31.1,N/A,,Mostly Cloudy,40,2013-06-17 07:58:00
3:30 AM,73.4,62.6,69,29.90,10.0,NNE,20.7,26.5,N/A,Thunderstorm,Overcast,30,2013-06-17 08:30:00
3:33 AM,73.4,64.4,73,29.90,10.0,NNE,18.4,26.5,N/A,Thunderstorm,Thunderstorm,20,2013-06-17 08:33:00
3:44 AM,71.6,64.4,78,29.97,10.0,NW,24.2,31.1,N/A,Rain-Thunderstorm,Light Thunderstorms and Rain,310,2013-06-17 08:44:00
3:45 AM,71.6,64.4,78,30.01,9.0,NW,25.3,28.8,N/A,Thunderstorm,Thunderstorm,310,2013-06-17 08:45:00
3:46 AM,71.6,64.4,78,30.02,7.0,WNW,27.6,32.2,N/A,Thunderstorm,Thunderstorm,300,2013-06-17 08:46:00
3:47 AM,71.6,64.4,78,30.03,6.0,WNW,29.9,34.5,N/A,Rain-Thunderstorm,Light Thunderstorms and Rain,300,2013-06-17 08:47:00
3:52 AM,71.6,66.2,83,30.01,0.8,WNW,34.5,48.3,N/A,Rain-Thunderstorm,Heavy Thunderstorms and Rain,300,2013-06-17 08:52:00
3:57 AM,69.8,68.0,94,30.01,0.2,NNW,27.6,48.3,N/A,Fog-Rain-Thunderstorm,Heavy Thunderstorms and Rain,330,2013-06-17 08:57:00
3:58 AM,70.3,68.0,92,29.97,0.2,NNW,26.5,48.3,N/A,Fog-Rain-Thunderstorm,Heavy Thunderstorms and Rain,330,2013-06-17 08:58:00
3:59 AM,69.8,68.0,94,30.02,0.5,NNW,24.2,48.3,N/A,Fog-Rain-Thunderstorm,Heavy Thunderstorms and Rain,330,2013-06-17 08:59:00
4:04 AM,69.8,68.0,94,30.02,0.8,NNW,12.7,-,N/A,Rain-Thunderstorm,Heavy Thunderstorms and Rain,340,2013-06-17 09:04:00
4:09 AM,69.8,68.0,94,30.02,3.0,NW,15.0,20.7,N/A,Rain-Thunderstorm,Thunderstorms and Rain,320,2013-06-17 09:09:00
4:14 AM,68.0,68.0,100,30.02,7.0,NNW,16.1,20.7,N/A,Rain-Thunderstorm,Thunderstorms and Rain,330,2013-06-17 09:14:00
4:39 AM,66.2,66.2,100,29.97,8.0,North,21.9,38.0,N/A,Rain-Thunderstorm,Thunderstorms and Rain,360,2013-06-17 09:39:00
4:44 AM,66.2,66.2,100,29.98,10.0,North,17.3,28.8,N/A,Rain-Thunderstorm,Heavy Thunderstorms and Rain,350,2013-06-17 09:44:00
4:56 AM,66.2,66.2,100,29.95,9.0,NNE,20.7,25.3,N/A,Rain-Thunderstorm,Heavy Thunderstorms and Rain,30,2013-06-17 09:56:00
4:58 AM,66.7,66.7,100,29.90,8.0,NNE,19.6,-,0.19,Rain-Thunderstorm,Heavy Thunderstorms and Rain,30,2013-06-17 09:58:00
5:06 AM,68.0,68.0,100,29.94,7.0,NE,15.0,-,N/A,Rain-Thunderstorm,Heavy Rain,50,2013-06-17 10:06:00
5:10 AM,68.0,66.2,94,29.94,7.0,ENE,16.1,-,N/A,Rain-Thunderstorm,Heavy Rain,60,2013-06-17 10:10:00
5:11 AM,68.0,66.2,94,29.94,8.0,ENE,12.7,-,N/A,,Overcast,60,2013-06-17 10:11:00
5:13 AM,68.0,66.2,94,29.94,8.0,ENE,11.5,-,N/A,Rain,Light Rain,70,2013-06-17 10:13:00
5:28 AM,68.0,66.2,94,29.95,10.0,ENE,8.1,-,N/A,,Overcast,70,2013-06-17 10:28:00
5:29 AM,68.0,66.2,94,29.95,10.0,ENE,8.1,-,N/A,Rain,Light Rain,70,2013-06-17 10:29:00
5:58 AM,68.0,67.5,98,29.89,10.0,SE,9.2,-,0.10,Rain,Light Rain,130,2013-06-17 10:58:00
6:07 AM,68.0,68.0,100,29.92,10.0,ESE,11.5,-,N/A,,Overcast,120,2013-06-17 11:07:00
6:58 AM,68.0,68.0,100,29.86,10.0,SE,8.1,-,0.00,,Partly Cloudy,130,2013-06-17 11:58:00
7:58 AM,68.7,68.7,100,29.95,10.0,WNW,9.2,-,N/A,,Clear,290,2013-06-17 12:58:00
8:58 AM,73.6,67.3,81,29.94,10.0,WSW,6.9,-,N/A,,Partly Cloudy,240,2013-06-17 13:58:00
9:58 AM,76.1,66.6,72,29.94,10.0,WSW,5.8,-,N/A,,Clear,250,2013-06-17 14:58:00
10:58 AM,78.6,65.3,64,29.94,10.0,West,5.8,-,N/A,,Mostly Cloudy,280,2013-06-17 15:58:00
11:58 AM,83.5,64.6,53,29.95,10.0,NW,8.1,-,N/A,,Scattered Clouds,310,2013-06-17 16:58:00
12:58 PM,86.2,64.9,49,29.95,10.0,NW,9.2,-,N/A,,Scattered Clouds,310,2013-06-17 17:58:00
1:58 PM,88.2,65.5,47,29.94,10.0,North,11.5,17.3,N/A,,Scattered Clouds,350,2013-06-17 18:58:00
2:58 PM,89.2,65.8,46,29.93,10.0,North,10.4,-,N/A,,Partly Cloudy,10,2013-06-17 19:58:00
3:58 PM,88.5,64.2,44,29.92,10.0,North,9.2,-,N/A,,Partly Cloudy,10,2013-06-17 20:58:00
4:58 PM,88.7,64.4,44,29.90,10.0,NNE,9.2,18.4,N/A,,Clear,30,2013-06-17 21:58:00
5:58 PM,90.1,61.7,38,29.88,10.0,NE,8.1,-,N/A,,Clear,50,2013-06-17 22:58:00
6:58 PM,89.1,62.8,41,29.87,10.0,NE,12.7,-,N/A,,Clear,50,2013-06-17 23:58:00
7:58 PM,86.5,64.4,47,29.87,10.0,East,11.5,-,N/A,,Clear,80,2013-06-18 00:58:00
8:58 PM,80.8,67.1,63,29.91,10.0,East,8.1,-,N/A,,Clear,100,2013-06-18 01:58:00
9:58 PM,77.9,68.7,73,29.92,10.0,East,6.9,-,N/A,,Clear,80,2013-06-18 02:58:00
10:58 PM,77.0,67.8,73,29.96,10.0,East,6.9,-,N/A,,Clear,100,2013-06-18 03:58:00
11:58 PM,76.3,67.6,74,29.97,10.0,ENE,6.9,-,N/A,,Clear,70,2013-06-18 04:58:00